| time (UTC) | temp F | wind direction | speed knots | gust knots | rain 1hr in | rain 24hr in | rain mn in | humidity % | barometer mb |
| 20260905103603 | 52 | 330 | 0.0 | 0.0 | 0.00 | 0.01 | 0.00 | 97 | 1010.2 |
| 20260905102103 | 53 | 330 | 0.0 | 0.0 | 0.00 | 0.01 | 0.00 | 97 | 1010.0 |
| 20260905101857 | 53 | 330 | 0.0 | 0.0 | 0.00 | 0.01 | 0.00 | 97 | 1009.6 |
| 20260905101724 | 54 | 330 | 0.0 | 0.0 | 0.00 | 0.01 | 0.00 | 96 | 1009.8 |
| 20260905101549 | 54 | 330 | 0.0 | 0.0 | 0.00 | 0.01 | 0.00 | 96 | 1009.6 |
| 20260905101541 | 54 | 330 | 0.0 | 0.0 | 0.00 | 0.01 | 0.00 | 96 | 1009.6 |
| 20260905101533 | 55 | 330 | 0.0 | 0.0 | 0.00 | 0.01 | 0.00 | 96 | 1009.6 |
| 20260905101528 | 53 | 330 | 0.0 | 0.0 | 0.00 | 0.01 | 0.00 | 97 | 1009.8 |
| 20260905101337 | 53 | 330 | 0.0 | 0.0 | 0.00 | 0.01 | 0.00 | 97 | 1009.8 |
| 20260905101327 | 53 | 330 | 0.0 | 0.0 | 0.00 | 0.01 | 0.00 | 97 | 1009.7 |
| 20260905101317 | 53 | 330 | 0.0 | 0.0 | 0.00 | 0.01 | 0.00 | 97 | 1009.7 |
| 20260905101309 | 53 | 330 | 0.0 | 0.0 | 0.00 | 0.01 | 0.00 | 97 | 1009.9 |
| 20260905101138 | 54 | 330 | 0.0 | 0.0 | 0.00 | 0.01 | 0.00 | 97 | 1009.8 |
| 20260905070548 | 55 | 330 | 0.0 | 0.0 | 0.00 | 0.01 | 0.00 | 96 | 1009.7 |
| 20260905065044 | 55 | 330 | 0.0 | 0.0 | 0.00 | 0.01 | 0.00 | 96 | 1010.0 |
| 20260905063544 | 56 | 330 | 0.0 | 0.0 | 0.00 | 0.01 | 0.00 | 96 | 1009.9 |
| 20260905062040 | 56 | 330 | 0.0 | 0.0 | 0.00 | 0.01 | 0.00 | 96 | 1010.0 |
| 20260905060539 | 56 | 330 | 0.0 | 0.0 | 0.00 | 0.01 | 0.00 | 96 | 1009.9 |
| 20260905055740 | 57 | 330 | 0.0 | 0.0 | 0.00 | 0.01 | 0.00 | 96 | 1009.9 |
| 20260905055004 | 57 | 330 | 0.0 | 0.0 | 0.00 | 0.01 | 0.00 | 96 | 1009.9 |
| 20260905052035 | 57 | 330 | 0.0 | 0.0 | 0.00 | 0.01 | 0.00 | 95 | 1009.9 |
| 20260905051235 | 58 | 330 | 0.0 | 0.0 | 0.00 | 0.01 | 0.00 | 96 | 1010.0 |
| 20260905045034 | 58 | 330 | 0.0 | 0.0 | 0.00 | 0.01 | 0.00 | 96 | 1010.3 |
| 20260905043536 | 58 | 330 | 0.0 | 0.0 | 0.00 | 0.01 | 0.00 | 96 | 1010.5 |
| 20260905042035 | 58 | 330 | 0.0 | 0.0 | 0.00 | 0.01 | 0.00 | 95 | 1010.5 |
| 20260905040535 | 59 | 330 | 0.0 | 0.0 | 0.00 | 0.01 | 0.00 | 95 | 1010.6 |
| 20260905035034 | 59 | 330 | 0.0 | 0.0 | 0.00 | 0.01 | 0.01 | 95 | 1010.4 |
| 20260905033528 | 59 | 330 | 0.0 | 0.0 | 0.00 | 0.01 | 0.01 | 94 | 1010.3 |
| 20260905032027 | 60 | 330 | 0.0 | 0.0 | 0.00 | 0.01 | 0.01 | 94 | 1010.4 |
| 20260905030526 | 60 | 330 | 0.0 | 0.0 | 0.00 | 0.01 | 0.01 | 94 | 1010.4 |
| 20260905025027 | 61 | 330 | 0.0 | 0.0 | 0.00 | 0.01 | 0.01 | 94 | 1010.5 |
| 20260905023528 | 61 | 330 | 0.0 | 0.0 | 0.00 | 0.01 | 0.01 | 94 | 1010.6 |
| 20260905022029 | 62 | 330 | 0.0 | 0.0 | 0.00 | 0.01 | 0.01 | 94 | 1010.7 |
| 20260905020528 | 62 | 330 | 0.0 | 0.0 | 0.00 | 0.01 | 0.01 | 94 | 1010.9 |
| 20260905015028 | 62 | 330 | 0.0 | 0.0 | 0.00 | 0.01 | 0.01 | 93 | 1010.9 |
| 20260905013528 | 63 | 330 | 0.0 | 0.0 | 0.00 | 0.01 | 0.01 | 93 | 1011.0 |
| 20260905012722 | 63 | 330 | 0.0 | 0.0 | 0.00 | 0.01 | 0.01 | 93 | 1011.0 |
| 20260905010527 | 63 | 330 | 0.0 | 0.0 | 0.00 | 0.01 | 0.01 | 92 | 1010.8 |
| 20260905010415 | 64 | 330 | 0.0 | 0.0 | 0.01 | 0.01 | 0.01 | 91 | 1010.8 |
| 20260905003528 | 65 | 330 | 0.0 | 0.0 | 0.01 | 0.01 | 0.01 | 91 | 1010.9 |
| 20260905002025 | 65 | 330 | 0.0 | 6.1 | 0.01 | 0.01 | 0.01 | 89 | 1011.1 |
| 20260905000526 | 65 | 306 | 0.0 | 4.3 | 0.01 | 0.01 | 0.01 | 87 | 1010.8 |
| 20260904235716 | 66 | 350 | 0.0 | 0.0 | 0.00 | 0.00 | 0.00 | 88 | 1010.2 |
| 20260904233526 | 66 | 350 | 0.0 | 0.9 | 0.00 | 0.00 | 0.00 | 86 | 1010.1 |
| 20260904232026 | 67 | 350 | 0.0 | 0.0 | 0.00 | 0.00 | 0.00 | 85 | 1010.2 |
| 20260904230525 | 68 | 350 | 0.0 | 0.9 | 0.00 | 0.00 | 0.00 | 83 | 1010.0 |
| 20260904225026 | 69 | 350 | 0.0 | 0.0 | 0.00 | 0.00 | 0.00 | 82 | 1010.1 |
| 20260904223525 | 70 | 350 | 0.0 | 0.0 | 0.00 | 0.00 | 0.00 | 81 | 1010.1 |
| 20260904222714 | 71 | 350 | 0.0 | 0.0 | 0.00 | 0.00 | 0.00 | 79 | 1010.0 |
| 20260904221910 | 71 | 350 | 0.0 | 0.0 | 0.00 | 0.00 | 0.00 | 76 | 1010.0 |
| 20260904215023 | 72 | 350 | 0.0 | 0.0 | 0.00 | 0.00 | 0.00 | 76 | 1010.0 |
| 20260904214926 | 72 | 351 | 0.0 | 0.9 | 0.00 | 0.00 | 0.00 | 73 | 1009.9 |
| 20260904212023 | 73 | 34 | 0.0 | 0.0 | 0.00 | 0.00 | 0.00 | 73 | 1010.1 |
| 20260904210523 | 74 | 355 | 0.0 | 0.9 | 0.00 | 0.00 | 0.00 | 67 | 1010.2 |
| 20260904205024 | 74 | 286 | 0.0 | 0.9 | 0.00 | 0.00 | 0.00 | 66 | 1010.1 |
| 20260904203523 | 75 | 301 | 0.0 | 2.6 | 0.00 | 0.00 | 0.00 | 64 | 1010.1 |
| 20260904202022 | 75 | 355 | 0.0 | 2.6 | 0.00 | 0.00 | 0.00 | 63 | 1010.1 |
| 20260904201219 | 76 | 340 | 0.0 | 0.9 | 0.00 | 0.00 | 0.00 | 65 | 1010.0 |
| 20260904200422 | 76 | 315 | 0.0 | 1.7 | 0.00 | 0.00 | 0.00 | 59 | 1010.0 |
| 20260904194222 | 76 | 343 | 0.0 | 1.7 | 0.00 | 0.00 | 0.00 | 59 | 1010.0 |
| 20260904193426 | 77 | 78 | 0.0 | 3.5 | 0.00 | 0.00 | 0.00 | 59 | 1010.0 |
| 20260904190518 | 76 | 219 | 0.0 | 0.9 | 0.00 | 0.00 | 0.00 | 59 | 1010.1 |
| 20260904185017 | 76 | 333 | 0.0 | 0.9 | 0.00 | 0.00 | 0.00 | 64 | 1010.0 |
| 20260904184210 | 77 | 16 | 0.0 | 0.9 | 0.00 | 0.00 | 0.00 | 63 | 1010.2 |
| 20260904182017 | 79 | 0 | 0.0 | 4.3 | 0.00 | 0.00 | 0.00 | 56 | 1010.0 |
| 20260904180514 | 78 | 321 | 0.0 | 6.1 | 0.00 | 0.00 | 0.00 | 56 | 1010.2 |
| 20260904175015 | 80 | 5 | 0.0 | 0.0 | 0.00 | 0.00 | 0.00 | 57 | 1010.3 |
| 20260904174902 | 82 | 348 | 0.0 | 0.9 | 0.00 | 0.00 | 0.00 | 51 | 1009.9 |
| 20260904172015 | 80 | 0 | 0.0 | 0.9 | 0.00 | 0.00 | 0.00 | 57 | 1010.0 |
| 20260904170513 | 79 | 161 | 0.0 | 4.3 | 0.00 | 0.00 | 0.00 | 54 | 1010.4 |
| 20260904165012 | 80 | 19 | 0.9 | 7.0 | 0.00 | 0.00 | 0.00 | 56 | 1010.6 |
| 20260904164157 | 79 | 294 | 0.0 | 6.1 | 0.00 | 0.00 | 0.00 | 56 | 1010.3 |
| 20260904162702 | 79 | 279 | 0.9 | 9.6 | 0.00 | 0.00 | 0.00 | 60 | 1010.4 |
| 20260904160507 | 78 | 308 | 0.0 | 0.9 | 0.00 | 0.00 | 0.00 | 60 | 1010.5 |
| 20260904155005 | 79 | 15 | 0.0 | 7.0 | 0.00 | 0.00 | 0.00 | 63 | 1010.6 |
| 20260904153505 | 78 | 355 | 0.9 | 8.7 | 0.00 | 0.00 | 0.00 | 63 | 1010.8 |
| 20260904152005 | 76 | 298 | 0.0 | 0.0 | 0.00 | 0.00 | 0.00 | 66 | 1010.8 |
| 20260904150459 | 76 | 338 | 0.0 | 4.3 | 0.00 | 0.00 | 0.00 | 72 | 1010.8 |
| 20260904144958 | 76 | 292 | 0.9 | 4.3 | 0.00 | 0.00 | 0.00 | 70 | 1010.8 |
| 20260904144152 | 74 | 355 | 0.0 | 0.0 | 0.00 | 0.00 | 0.00 | 74 | 1010.9 |
| 20260904141959 | 74 | 30 | 0.0 | 2.6 | 0.00 | 0.00 | 0.00 | 78 | 1010.9 |
| 20260904140457 | 71 | 332 | 0.0 | 4.3 | 0.00 | 0.00 | 0.00 | 82 | 1010.7 |
| 20260904134958 | 68 | 293 | 0.0 | 6.1 | 0.00 | 0.00 | 0.00 | 84 | 1010.7 |
| 20260904134200 | 64 | 295 | 0.0 | 5.2 | 0.00 | 0.00 | 0.00 | 99 | 1010.8 |
| 20260904131956 | 62 | 66 | 0.0 | 2.6 | 0.00 | 0.00 | 0.00 | 99 | 1010.8 |
| 20260904130457 | 61 | 355 | 0.0 | 0.0 | 0.00 | 0.00 | 0.00 | 99 | 1010.8 |
| 20260904124956 | 58 | 355 | 0.0 | 0.0 | 0.00 | 0.00 | 0.00 | 99 | 1011.0 |
| 20260904123455 | 56 | 355 | 0.0 | 0.0 | 0.00 | 0.00 | 0.00 | 99 | 1011.0 |
| 20260904121951 | 55 | 355 | 0.0 | 0.0 | 0.00 | 0.00 | 0.00 | 99 | 1011.2 |
| 20260904121144 | 55 | 355 | 0.0 | 0.0 | 0.00 | 0.00 | 0.00 | 99 | 1011.2 |
| 20260904114953 | 54 | 355 | 0.0 | 0.0 | 0.00 | 0.00 | 0.00 | 98 | 1011.2 |
| 20260904113452 | 54 | 355 | 0.0 | 0.0 | 0.00 | 0.00 | 0.00 | 98 | 1011.1 |
| 20260904111949 | 54 | 355 | 0.0 | 0.0 | 0.00 | 0.00 | 0.00 | 98 | 1010.9 |
| 20260904110448 | 54 | 355 | 0.0 | 0.0 | 0.00 | 0.00 | 0.00 | 98 | 1010.9 |
| 20260904104950 | 54 | 355 | 0.0 | 0.0 | 0.00 | 0.00 | 0.00 | 98 | 1010.5 |